Location: Newark
(37.9800°N, 91.3000°W)
Time: 22:45:08
(UTC+00:00)

NOAA 19 - Pass Details

Date: 07 December 2019
Orbit: 840 x 862 km, 99.2° (Epoch: 21 January)

Event Time Altitude Azimuth Distance (km) Brightness Sun altitude
Rises 12:04:01 0° 10° (N) 3,443 8.3 -12.3°
Reaches altitude 10° 12:06:24 10° 8° (N) 2,500 7.5 -11.8°
Maximum altitude 12:11:55 68° 287° (WNW) 920 5.2 -10.8°
Drops below altitude 10° 12:17:21 10° 205° (SSW) 2,472 7.6 -9.8°
Sets 12:19:43 0° 203° (SSW) 3,400 8.3 -9.4°
